Year,Month,Day,Hour,Minute,Value (Times are PST for windspeed in km/hr)
2015,12,12,00,00,0.00
2015,12,12,00,01,0.00
2015,12,12,00,02,0.00
2015,12,12,00,03,0.00
2015,12,12,00,04,0.00
2015,12,12,00,05,0.00
2015,12,12,00,06,0.00
2015,12,12,00,07,0.00
2015,12,12,00,08,0.00
2015,12,12,00,09,0.00
2015,12,12,00,10,0.00
2015,12,12,00,11,0.00
2015,12,12,00,12,0.00
2015,12,12,00,13,0.00
2015,12,12,00,14,0.00
2015,12,12,00,15,0.00
2015,12,12,00,16,0.00
2015,12,12,00,17,0.00
2015,12,12,00,18,0.00
2015,12,12,00,19,0.00
2015,12,12,00,20,0.00
2015,12,12,00,21,0.00
2015,12,12,00,22,0.00
2015,12,12,00,23,0.00
2015,12,12,00,24,0.00
2015,12,12,00,25,0.00
2015,12,12,00,26,0.00
2015,12,12,00,27,0.00
2015,12,12,00,28,0.00
2015,12,12,00,29,0.00
2015,12,12,00,30,0.00
2015,12,12,00,31,0.00
2015,12,12,00,32,0.00
2015,12,12,00,33,0.00
2015,12,12,00,34,0.00
2015,12,12,00,35,0.00
2015,12,12,00,36,0.00
2015,12,12,00,37,0.00
2015,12,12,00,38,0.00
2015,12,12,00,39,0.00
2015,12,12,00,40,0.00
2015,12,12,00,41,0.00
2015,12,12,00,42,0.00
2015,12,12,00,43,0.00
2015,12,12,00,44,0.00
2015,12,12,00,45,0.00
2015,12,12,00,46,0.00
2015,12,12,00,47,0.00
2015,12,12,00,48,0.00
2015,12,12,00,49,0.00
2015,12,12,00,50,0.00
2015,12,12,00,51,0.00
2015,12,12,00,52,0.00
2015,12,12,00,53,0.00
2015,12,12,00,54,0.00
2015,12,12,00,55,0.00
2015,12,12,00,56,0.00
2015,12,12,00,57,0.00
2015,12,12,00,58,0.00
2015,12,12,00,59,0.00
2015,12,12,01,00,0.00
2015,12,12,01,01,0.00
2015,12,12,01,02,0.00
2015,12,12,01,03,0.00
2015,12,12,01,04,0.00
2015,12,12,01,05,0.00
2015,12,12,01,06,0.60
2015,12,12,01,07,3.40
2015,12,12,01,08,0.90
2015,12,12,01,09,2.70
2015,12,12,01,10,3.20
2015,12,12,01,11,3.80
2015,12,12,01,12,2.50
2015,12,12,01,13,1.00
2015,12,12,01,14,0.00
2015,12,12,01,15,0.00
2015,12,12,01,16,0.80
2015,12,12,01,17,0.20
2015,12,12,01,18,0.00
2015,12,12,01,19,0.10
2015,12,12,01,20,0.60
2015,12,12,01,21,0.00
2015,12,12,01,22,0.60
2015,12,12,01,23,1.10
2015,12,12,01,24,0.70
2015,12,12,01,25,0.00
2015,12,12,01,26,1.40
2015,12,12,01,27,0.50
2015,12,12,01,28,0.00
2015,12,12,01,29,0.00
2015,12,12,01,30,0.00
2015,12,12,01,31,0.00
2015,12,12,01,32,0.00
2015,12,12,01,33,0.00
2015,12,12,01,34,0.00
2015,12,12,01,35,0.00
2015,12,12,01,36,0.00
2015,12,12,01,37,0.00
2015,12,12,01,38,0.00
2015,12,12,01,39,0.00
2015,12,12,01,40,0.00
2015,12,12,01,41,0.00
2015,12,12,01,42,0.00
2015,12,12,01,43,1.80
2015,12,12,01,44,3.50
2015,12,12,01,45,2.20
2015,12,12,01,46,3.00
2015,12,12,01,47,0.60
2015,12,12,01,48,0.00
2015,12,12,01,49,0.00
2015,12,12,01,50,0.00
2015,12,12,01,51,0.00
2015,12,12,01,52,0.00
2015,12,12,01,53,0.00
2015,12,12,01,54,0.00
2015,12,12,01,55,0.00
2015,12,12,01,56,0.00
2015,12,12,01,57,0.00
2015,12,12,01,58,0.00
2015,12,12,01,59,0.00
2015,12,12,02,00,0.00
2015,12,12,02,01,0.00
2015,12,12,02,02,0.00
2015,12,12,02,03,0.00
2015,12,12,02,04,0.00
2015,12,12,02,05,0.00
2015,12,12,02,06,0.00
2015,12,12,02,07,0.00
2015,12,12,02,08,0.00
2015,12,12,02,09,0.00
2015,12,12,02,10,0.00
2015,12,12,02,11,2.50
2015,12,12,02,12,0.10
2015,12,12,02,13,0.00
2015,12,12,02,14,0.00
2015,12,12,02,15,0.60
2015,12,12,02,16,1.00
2015,12,12,02,17,2.10
2015,12,12,02,18,2.70
2015,12,12,02,19,1.10
2015,12,12,02,20,0.00
2015,12,12,02,21,0.00
2015,12,12,02,22,0.00
2015,12,12,02,23,3.20
2015,12,12,02,24,1.90
2015,12,12,02,25,3.10
2015,12,12,02,26,3.10
2015,12,12,02,27,4.60
2015,12,12,02,28,4.40
2015,12,12,02,29,3.80
2015,12,12,02,30,3.10
2015,12,12,02,31,2.20
2015,12,12,02,32,1.50
2015,12,12,02,33,0.00
2015,12,12,02,34,1.50
2015,12,12,02,35,3.40
2015,12,12,02,36,3.30
2015,12,12,02,37,3.10
2015,12,12,02,38,4.20
2015,12,12,02,39,6.00
2015,12,12,02,40,4.70
2015,12,12,02,41,4.40
2015,12,12,02,42,3.10
2015,12,12,02,43,4.50
2015,12,12,02,44,6.50
2015,12,12,02,45,2.80
2015,12,12,02,46,3.80
2015,12,12,02,47,2.50
2015,12,12,02,48,1.00
2015,12,12,02,49,0.00
2015,12,12,02,50,0.00
2015,12,12,02,51,0.00
2015,12,12,02,52,0.60
2015,12,12,02,53,1.70
2015,12,12,02,54,3.20
2015,12,12,02,55,2.30
2015,12,12,02,56,4.00
2015,12,12,02,57,4.10
2015,12,12,02,58,3.50
2015,12,12,02,59,4.80
2015,12,12,03,00,3.50
2015,12,12,03,01,0.60
2015,12,12,03,02,1.30
2015,12,12,03,03,2.90
2015,12,12,03,04,3.10
2015,12,12,03,05,3.60
2015,12,12,03,06,4.10
2015,12,12,03,07,4.50
2015,12,12,03,08,2.50
2015,12,12,03,09,3.30
2015,12,12,03,10,1.60
2015,12,12,03,11,0.90
2015,12,12,03,12,3.80
2015,12,12,03,13,2.60
2015,12,12,03,14,5.40
2015,12,12,03,15,6.10
2015,12,12,03,16,6.70
2015,12,12,03,17,5.90
2015,12,12,03,18,5.40
2015,12,12,03,19,4.10
2015,12,12,03,20,2.50
2015,12,12,03,21,0.60
2015,12,12,03,22,0.00
2015,12,12,03,23,0.00
2015,12,12,03,24,1.80
2015,12,12,03,25,0.20
2015,12,12,03,26,0.00
2015,12,12,03,27,0.40
2015,12,12,03,28,4.40
2015,12,12,03,29,2.90
2015,12,12,03,30,1.90
2015,12,12,03,31,0.00
2015,12,12,03,32,0.00
2015,12,12,03,33,0.00
2015,12,12,03,34,0.60
2015,12,12,03,35,1.70
2015,12,12,03,36,0.00
2015,12,12,03,37,1.80
2015,12,12,03,38,5.30
2015,12,12,03,39,5.20
2015,12,12,03,40,5.20
2015,12,12,03,41,6.00
2015,12,12,03,42,4.20
2015,12,12,03,43,2.40
2015,12,12,03,44,2.50
2015,12,12,03,45,4.40
2015,12,12,03,46,3.50
2015,12,12,03,47,2.70
2015,12,12,03,48,2.00
2015,12,12,03,49,3.00
2015,12,12,03,50,4.30
2015,12,12,03,51,3.40
2015,12,12,03,52,3.80
2015,12,12,03,53,4.80
2015,12,12,03,54,1.40
2015,12,12,03,55,0.00
2015,12,12,03,56,0.00
2015,12,12,03,57,0.00
2015,12,12,03,58,0.00
2015,12,12,03,59,0.00
2015,12,12,04,00,0.00
2015,12,12,04,01,0.00
2015,12,12,04,02,0.00
2015,12,12,04,03,0.00
2015,12,12,04,04,0.00
2015,12,12,04,05,0.00
2015,12,12,04,06,0.10
2015,12,12,04,07,0.00
2015,12,12,04,08,0.00
2015,12,12,04,09,0.00
2015,12,12,04,10,0.30
2015,12,12,04,11,2.00
2015,12,12,04,12,0.60
2015,12,12,04,13,0.00
2015,12,12,04,14,1.80
2015,12,12,04,15,2.70
2015,12,12,04,16,0.20
2015,12,12,04,17,0.50
2015,12,12,04,18,5.60
2015,12,12,04,19,4.70
2015,12,12,04,20,3.40
2015,12,12,04,21,3.70
2015,12,12,04,22,5.20
2015,12,12,04,23,3.90
2015,12,12,04,24,4.70
2015,12,12,04,25,5.60
2015,12,12,04,26,4.70
2015,12,12,04,27,4.70
2015,12,12,04,28,4.00
2015,12,12,04,29,0.60
2015,12,12,04,30,0.00
2015,12,12,04,31,5.10
2015,12,12,04,32,3.60
2015,12,12,04,33,1.80
2015,12,12,04,34,6.00
2015,12,12,04,35,4.80
2015,12,12,04,36,4.60
2015,12,12,04,37,4.10
2015,12,12,04,38,7.50
2015,12,12,04,39,7.30
2015,12,12,04,40,5.10
2015,12,12,04,41,7.10
2015,12,12,04,42,6.30
2015,12,12,04,43,4.90
2015,12,12,04,44,5.00
2015,12,12,04,45,9.20
2015,12,12,04,46,6.80
2015,12,12,04,47,6.50
2015,12,12,04,48,7.20
2015,12,12,04,49,5.30
2015,12,12,04,50,2.80
2015,12,12,04,51,3.40
2015,12,12,04,52,5.80
2015,12,12,04,53,4.10
2015,12,12,04,54,4.60
2015,12,12,04,55,2.30
2015,12,12,04,56,3.30
2015,12,12,04,57,2.40
2015,12,12,04,58,4.10
2015,12,12,04,59,3.70
2015,12,12,05,00,5.50
2015,12,12,05,01,8.90
2015,12,12,05,02,6.70
2015,12,12,05,03,5.90
2015,12,12,05,04,4.70
2015,12,12,05,05,5.50
2015,12,12,05,06,5.80
2015,12,12,05,07,4.40
2015,12,12,05,08,5.80
2015,12,12,05,09,6.10
2015,12,12,05,10,8.20
2015,12,12,05,11,8.40
2015,12,12,05,12,9.10
2015,12,12,05,13,6.10
2015,12,12,05,14,7.20
2015,12,12,05,15,8.80
2015,12,12,05,16,9.30
2015,12,12,05,17,8.10
2015,12,12,05,18,6.10
2015,12,12,05,19,7.20
2015,12,12,05,20,6.90
2015,12,12,05,21,4.70
2015,12,12,05,22,5.80
2015,12,12,05,23,8.50
2015,12,12,05,24,8.80
2015,12,12,05,25,7.70
2015,12,12,05,26,10.10
2015,12,12,05,27,7.20
2015,12,12,05,28,5.50
2015,12,12,05,29,5.60
2015,12,12,05,30,6.30
2015,12,12,05,31,7.60
2015,12,12,05,32,6.50
2015,12,12,05,33,4.90
2015,12,12,05,34,7.10
2015,12,12,05,35,6.40
2015,12,12,05,36,7.00
2015,12,12,05,37,7.20
2015,12,12,05,38,6.40
2015,12,12,05,39,4.90
2015,12,12,05,40,7.20
2015,12,12,05,41,6.50
2015,12,12,05,42,7.70
2015,12,12,05,43,5.50
2015,12,12,05,44,6.00
2015,12,12,05,45,4.30
2015,12,12,05,46,6.30
2015,12,12,05,47,7.00
2015,12,12,05,48,12.80
2015,12,12,05,49,11.30
2015,12,12,05,50,10.20
2015,12,12,05,51,10.10
2015,12,12,05,52,7.80
2015,12,12,05,53,8.80
2015,12,12,05,54,12.90
2015,12,12,05,55,12.80
2015,12,12,05,56,10.70
2015,12,12,05,57,12.40
2015,12,12,05,58,11.30
2015,12,12,05,59,11.90
2015,12,12,06,00,7.30
2015,12,12,06,01,7.40
2015,12,12,06,02,6.40
2015,12,12,06,03,9.80
2015,12,12,06,04,11.40
2015,12,12,06,05,7.40
2015,12,12,06,06,11.60
2015,12,12,06,07,8.50
2015,12,12,06,08,8.20
2015,12,12,06,09,9.10
2015,12,12,06,10,6.40
2015,12,12,06,11,9.50
2015,12,12,06,12,8.00
2015,12,12,06,13,9.80
2015,12,12,06,14,9.30
2015,12,12,06,15,8.10
2015,12,12,06,16,10.60
2015,12,12,06,17,7.40
2015,12,12,06,18,7.90
2015,12,12,06,19,8.80
2015,12,12,06,20,8.10
2015,12,12,06,21,3.10
2015,12,12,06,22,5.60
2015,12,12,06,23,6.20
2015,12,12,06,24,6.40
2015,12,12,06,25,8.90
2015,12,12,06,26,7.40
2015,12,12,06,27,9.80
2015,12,12,06,28,6.40
2015,12,12,06,29,8.10
2015,12,12,06,30,9.70
2015,12,12,06,31,8.00
2015,12,12,06,32,7.70
2015,12,12,06,33,6.10
2015,12,12,06,34,8.60
2015,12,12,06,35,7.80
2015,12,12,06,36,6.80
2015,12,12,06,37,10.30
2015,12,12,06,38,4.80
2015,12,12,06,39,6.80
2015,12,12,06,40,11.90
2015,12,12,06,41,12.20
2015,12,12,06,42,8.30
2015,12,12,06,43,9.30
2015,12,12,06,44,9.70
2015,12,12,06,45,11.00
2015,12,12,06,46,8.90
2015,12,12,06,47,10.30
2015,12,12,06,48,11.30
2015,12,12,06,49,10.80
2015,12,12,06,50,9.00
2015,12,12,06,51,8.70
2015,12,12,06,52,8.10
2015,12,12,06,53,8.00
2015,12,12,06,54,9.00
2015,12,12,06,55,10.10
2015,12,12,06,56,7.80
2015,12,12,06,57,9.90
2015,12,12,06,58,13.40
2015,12,12,06,59,7.70
2015,12,12,07,00,8.80
2015,12,12,07,01,9.50
2015,12,12,07,02,12.90
2015,12,12,07,03,7.60
2015,12,12,07,04,11.80
2015,12,12,07,05,12.00
2015,12,12,07,06,8.00
2015,12,12,07,07,7.70
2015,12,12,07,08,6.60
2015,12,12,07,09,6.70
2015,12,12,07,10,9.00
2015,12,12,07,11,6.70
2015,12,12,07,12,6.50
2015,12,12,07,13,5.10
2015,12,12,07,14,5.80
2015,12,12,07,15,4.80
2015,12,12,07,16,4.80
2015,12,12,07,17,5.20
2015,12,12,07,18,4.10
2015,12,12,07,19,5.20
2015,12,12,07,20,3.50
2015,12,12,07,21,4.60
2015,12,12,07,22,4.50
2015,12,12,07,23,4.90
2015,12,12,07,24,3.80
2015,12,12,07,25,4.00
2015,12,12,07,26,3.30
2015,12,12,07,27,3.80
2015,12,12,07,28,3.20
2015,12,12,07,29,3.10
2015,12,12,07,30,2.50
2015,12,12,07,31,3.00
2015,12,12,07,32,4.00
2015,12,12,07,33,3.00
2015,12,12,07,34,3.10
2015,12,12,07,35,1.50
2015,12,12,07,36,4.90
2015,12,12,07,37,3.10
2015,12,12,07,38,2.80
2015,12,12,07,39,4.00
2015,12,12,07,40,2.50
2015,12,12,07,41,1.50
2015,12,12,07,42,0.90
2015,12,12,07,43,1.60
2015,12,12,07,44,2.90
2015,12,12,07,45,4.70
2015,12,12,07,46,4.90
2015,12,12,07,47,5.80
2015,12,12,07,48,4.40
2015,12,12,07,49,3.10
2015,12,12,07,50,3.90
2015,12,12,07,51,3.70
2015,12,12,07,52,5.40
2015,12,12,07,53,5.20
2015,12,12,07,54,4.60
2015,12,12,07,55,3.20
2015,12,12,07,56,2.30
2015,12,12,07,57,1.80
2015,12,12,07,58,0.40
2015,12,12,07,59,4.60
2015,12,12,08,00,4.40
2015,12,12,08,01,3.90
2015,12,12,08,02,2.00
2015,12,12,08,03,3.50
2015,12,12,08,04,3.30
2015,12,12,08,05,3.10
2015,12,12,08,06,3.50
2015,12,12,08,07,3.60
2015,12,12,08,08,4.60
2015,12,12,08,09,4.30
2015,12,12,08,10,5.10
2015,12,12,08,11,4.60
2015,12,12,08,12,8.80
2015,12,12,08,13,7.10
2015,12,12,08,14,8.50
2015,12,12,08,15,6.90
2015,12,12,08,16,8.20
2015,12,12,08,17,10.70
2015,12,12,08,18,12.40
2015,12,12,08,19,12.30
2015,12,12,08,20,9.80
2015,12,12,08,21,15.30
2015,12,12,08,22,11.80
2015,12,12,08,23,11.30
2015,12,12,08,24,12.10
2015,12,12,08,25,15.50
2015,12,12,08,26,16.90
2015,12,12,08,27,10.20
2015,12,12,08,28,11.30
2015,12,12,08,29,11.70
2015,12,12,08,30,18.20
2015,12,12,08,31,11.10
2015,12,12,08,32,12.20
2015,12,12,08,33,14.20
2015,12,12,08,34,5.80
2015,12,12,08,35,12.80
2015,12,12,08,36,10.80
2015,12,12,08,37,11.30
2015,12,12,08,38,7.80
2015,12,12,08,39,13.60
2015,12,12,08,40,16.70
2015,12,12,08,41,12.50
2015,12,12,08,42,13.70
2015,12,12,08,43,15.90
2015,12,12,08,44,11.80
2015,12,12,08,45,10.90
2015,12,12,08,46,10.20
2015,12,12,08,47,15.60
2015,12,12,08,48,19.00
2015,12,12,08,49,13.60
2015,12,12,08,50,21.80
2015,12,12,08,51,12.10
2015,12,12,08,52,13.50
2015,12,12,08,53,14.80
2015,12,12,08,54,11.70
2015,12,12,08,55,21.00
2015,12,12,08,56,16.40
2015,12,12,08,57,14.10
2015,12,12,08,58,11.40
2015,12,12,08,59,15.00
2015,12,12,09,00,13.40
2015,12,12,09,01,14.80
2015,12,12,09,02,13.80
2015,12,12,09,03,10.90
2015,12,12,09,04,9.00
2015,12,12,09,05,12.00
2015,12,12,09,06,11.20
2015,12,12,09,07,14.20
2015,12,12,09,08,10.20
2015,12,12,09,09,13.40
2015,12,12,09,10,14.30
2015,12,12,09,11,16.40
2015,12,12,09,12,14.60
2015,12,12,09,13,14.40
2015,12,12,09,14,11.10
2015,12,12,09,15,17.50
2015,12,12,09,16,16.00
2015,12,12,09,17,14.00
2015,12,12,09,18,13.60
2015,12,12,09,19,13.10
2015,12,12,09,20,13.20
2015,12,12,09,21,15.60
2015,12,12,09,22,10.50
2015,12,12,09,23,14.90
2015,12,12,09,24,11.80
2015,12,12,09,25,11.90
2015,12,12,09,26,11.80
2015,12,12,09,27,13.90
2015,12,12,09,28,9.00
2015,12,12,09,29,13.90
2015,12,12,09,30,15.00
2015,12,12,09,31,20.80
2015,12,12,09,32,15.20
2015,12,12,09,33,12.60
2015,12,12,09,34,16.30
2015,12,12,09,35,15.50
2015,12,12,09,36,13.50
2015,12,12,09,37,13.20
2015,12,12,09,38,9.30
2015,12,12,09,39,13.60
2015,12,12,09,40,19.10
2015,12,12,09,41,18.60
2015,12,12,09,42,16.90
2015,12,12,09,43,10.00
2015,12,12,09,44,15.00
2015,12,12,09,45,11.70
2015,12,12,09,46,12.00
2015,12,12,09,47,13.70
2015,12,12,09,48,20.40
2015,12,12,09,49,19.60
2015,12,12,09,50,15.70
2015,12,12,09,51,14.40
2015,12,12,09,52,13.00
2015,12,12,09,53,20.80
2015,12,12,09,54,16.40
2015,12,12,09,55,14.00
2015,12,12,09,56,16.70
2015,12,12,09,57,17.00
2015,12,12,09,58,11.30
2015,12,12,09,59,15.60
2015,12,12,10,00,21.90
2015,12,12,10,01,15.10
2015,12,12,10,02,13.00
2015,12,12,10,03,14.70
2015,12,12,10,04,11.70
2015,12,12,10,05,11.80
2015,12,12,10,06,17.10
2015,12,12,10,07,16.00
2015,12,12,10,08,17.80
2015,12,12,10,09,14.60
2015,12,12,10,10,21.50
2015,12,12,10,11,12.40
2015,12,12,10,12,17.50
2015,12,12,10,13,17.10
2015,12,12,10,14,20.40
2015,12,12,10,15,15.30
2015,12,12,10,16,17.10
2015,12,12,10,17,10.50
2015,12,12,10,18,15.10
2015,12,12,10,19,19.10
2015,12,12,10,20,9.40
2015,12,12,10,21,14.60
2015,12,12,10,22,11.30
2015,12,12,10,23,9.80
2015,12,12,10,24,16.70
2015,12,12,10,25,13.80
2015,12,12,10,26,14.30
2015,12,12,10,27,18.00
2015,12,12,10,28,22.10
2015,12,12,10,29,18.20
2015,12,12,10,30,13.70
2015,12,12,10,31,15.00
2015,12,12,10,32,13.00
2015,12,12,10,33,11.80
2015,12,12,10,34,19.10
2015,12,12,10,35,14.30
2015,12,12,10,36,15.10
2015,12,12,10,37,10.50
2015,12,12,10,38,23.20
2015,12,12,10,39,10.10
2015,12,12,10,40,15.30
2015,12,12,10,41,12.80
2015,12,12,10,42,18.70
2015,12,12,10,43,14.60
2015,12,12,10,44,14.60
2015,12,12,10,45,16.10
2015,12,12,10,46,13.80
2015,12,12,10,47,13.10
2015,12,12,10,48,9.60
2015,12,12,10,49,14.70
2015,12,12,10,50,11.30
2015,12,12,10,51,8.40
2015,12,12,10,52,17.40
2015,12,12,10,53,16.70
2015,12,12,10,54,14.90
2015,12,12,10,55,16.50
2015,12,12,10,56,11.30
2015,12,12,10,57,12.00
2015,12,12,10,58,14.50
2015,12,12,10,59,11.10
2015,12,12,11,00,11.80
2015,12,12,11,01,12.60
2015,12,12,11,02,15.40
2015,12,12,11,03,15.60
2015,12,12,11,04,11.80
2015,12,12,11,05,10.90
2015,12,12,11,06,12.00
2015,12,12,11,07,11.70
2015,12,12,11,08,8.80
2015,12,12,11,09,8.50
2015,12,12,11,10,10.50
2015,12,12,11,11,8.80
2015,12,12,11,12,21.20
2015,12,12,11,13,13.80
2015,12,12,11,14,13.20
2015,12,12,11,15,19.10
2015,12,12,11,16,7.30
2015,12,12,11,17,17.20
2015,12,12,11,18,10.80
2015,12,12,11,19,15.50
2015,12,12,11,20,18.00
2015,12,12,11,21,13.60
2015,12,12,11,22,20.40
2015,12,12,11,23,17.60
2015,12,12,11,24,14.50
2015,12,12,11,25,12.60
2015,12,12,11,26,11.60
2015,12,12,11,27,15.60
2015,12,12,11,28,15.20
2015,12,12,11,29,14.50
2015,12,12,11,30,15.30
2015,12,12,11,31,18.30
2015,12,12,11,32,14.60
2015,12,12,11,33,14.70
2015,12,12,11,34,19.20
2015,12,12,11,35,18.50
2015,12,12,11,36,22.90
2015,12,12,11,37,19.60
2015,12,12,11,38,16.20
2015,12,12,11,39,15.80
2015,12,12,11,40,14.90
2015,12,12,11,41,11.60
2015,12,12,11,42,14.90
2015,12,12,11,43,10.90
2015,12,12,11,44,17.50
2015,12,12,11,45,9.40
2015,12,12,11,46,16.90
2015,12,12,11,47,19.00
2015,12,12,11,48,19.40
2015,12,12,11,49,16.90
2015,12,12,11,50,15.00
2015,12,12,11,51,19.10
2015,12,12,11,52,20.60
2015,12,12,11,53,15.70
2015,12,12,11,54,21.10
2015,12,12,11,55,26.90
2015,12,12,11,56,25.10
2015,12,12,11,57,19.00
2015,12,12,11,58,27.00
2015,12,12,11,59,19.20
2015,12,12,12,00,21.00
2015,12,12,12,01,18.40
2015,12,12,12,02,12.10
2015,12,12,12,03,25.40
2015,12,12,12,04,18.60
2015,12,12,12,05,17.60
2015,12,12,12,06,17.50
2015,12,12,12,07,18.60
2015,12,12,12,08,21.60
2015,12,12,12,09,20.70
2015,12,12,12,10,18.00
2015,12,12,12,11,12.10
2015,12,12,12,12,21.20
2015,12,12,12,13,22.90
2015,12,12,12,14,21.40
2015,12,12,12,15,13.20
2015,12,12,12,16,20.40
2015,12,12,12,17,22.70
2015,12,12,12,18,25.30
2015,12,12,12,19,17.30
2015,12,12,12,20,13.50
2015,12,12,12,21,17.40
2015,12,12,12,22,22.00
2015,12,12,12,23,23.50
2015,12,12,12,24,23.70
2015,12,12,12,25,17.90
2015,12,12,12,26,22.90
2015,12,12,12,27,17.90
2015,12,12,12,28,20.60
2015,12,12,12,29,21.60
2015,12,12,12,30,21.70
2015,12,12,12,31,17.20
2015,12,12,12,32,25.30
2015,12,12,12,33,27.20
2015,12,12,12,34,24.80
2015,12,12,12,35,26.70
2015,12,12,12,36,19.20
2015,12,12,12,37,27.40
2015,12,12,12,38,23.40
2015,12,12,12,39,17.70
2015,12,12,12,40,38.00
2015,12,12,12,41,28.40
2015,12,12,12,42,38.60
2015,12,12,12,43,33.30
2015,12,12,12,44,27.20
2015,12,12,12,45,30.30
2015,12,12,12,46,27.00
2015,12,12,12,47,23.50
2015,12,12,12,48,33.90
2015,12,12,12,49,24.20
2015,12,12,12,50,25.70
2015,12,12,12,51,33.30
2015,12,12,12,52,29.80
2015,12,12,12,53,27.70
2015,12,12,12,54,35.30
2015,12,12,12,55,25.60
2015,12,12,12,56,26.30
2015,12,12,12,57,25.80
2015,12,12,12,58,23.20
2015,12,12,12,59,16.40
2015,12,12,13,00,19.20
2015,12,12,13,01,18.50
2015,12,12,13,02,17.50
2015,12,12,13,03,19.80
2015,12,12,13,04,18.10
2015,12,12,13,05,15.60
2015,12,12,13,06,15.10
2015,12,12,13,07,18.90
2015,12,12,13,08,15.00
2015,12,12,13,09,21.70
2015,12,12,13,10,23.10
2015,12,12,13,11,28.70
2015,12,12,13,12,25.40
2015,12,12,13,13,20.00
2015,12,12,13,14,25.40
2015,12,12,13,15,33.40
2015,12,12,13,16,37.60
2015,12,12,13,17,23.00
2015,12,12,13,18,27.40
2015,12,12,13,19,24.90
2015,12,12,13,20,23.90
2015,12,12,13,21,18.50
2015,12,12,13,22,26.50
2015,12,12,13,23,26.00
2015,12,12,13,24,17.30
2015,12,12,13,25,15.00
2015,12,12,13,26,16.30
2015,12,12,13,27,33.30
2015,12,12,13,28,15.60
2015,12,12,13,29,20.80
2015,12,12,13,30,22.00
2015,12,12,13,31,23.70
2015,12,12,13,32,32.30
2015,12,12,13,33,30.70
2015,12,12,13,34,26.80
2015,12,12,13,35,29.30
2015,12,12,13,36,31.50
2015,12,12,13,37,27.20
2015,12,12,13,38,26.80
2015,12,12,13,39,25.90
2015,12,12,13,40,26.80
2015,12,12,13,41,24.90
2015,12,12,13,42,22.80
2015,12,12,13,43,23.90
2015,12,12,13,44,17.70
2015,12,12,13,45,15.50
2015,12,12,13,46,21.00
2015,12,12,13,47,18.90
2015,12,12,13,48,24.90
2015,12,12,13,49,22.80
2015,12,12,13,50,22.30
2015,12,12,13,51,14.20
2015,12,12,13,52,20.20
2015,12,12,13,53,19.50
2015,12,12,13,54,19.20
2015,12,12,13,55,14.00
2015,12,12,13,56,13.70
2015,12,12,13,57,23.70
2015,12,12,13,58,22.00
2015,12,12,13,59,8.20
2015,12,12,14,00,12.30
2015,12,12,14,01,18.00
2015,12,12,14,02,11.70
2015,12,12,14,03,15.60
2015,12,12,14,04,14.60
2015,12,12,14,05,17.90
2015,12,12,14,06,20.00
2015,12,12,14,07,10.90
2015,12,12,14,08,13.40
2015,12,12,14,09,17.60
2015,12,12,14,10,17.00
2015,12,12,14,11,26.40
2015,12,12,14,12,28.60
2015,12,12,14,13,33.90
2015,12,12,14,14,27.70
2015,12,12,14,15,24.70
2015,12,12,14,16,16.30
2015,12,12,14,17,19.80
2015,12,12,14,18,12.20
2015,12,12,14,19,22.80
2015,12,12,14,20,19.40
2015,12,12,14,21,13.40
2015,12,12,14,22,19.90
2015,12,12,14,23,24.70
2015,12,12,14,24,17.50
2015,12,12,14,25,13.30
2015,12,12,14,26,23.40
2015,12,12,14,27,14.10
2015,12,12,14,28,28.70
2015,12,12,14,29,14.90
2015,12,12,14,30,15.80
2015,12,12,14,31,13.60
2015,12,12,14,32,24.20
2015,12,12,14,33,12.90
2015,12,12,14,34,21.00
2015,12,12,14,35,16.40
2015,12,12,14,36,18.10
2015,12,12,14,37,23.60
2015,12,12,14,38,18.70
2015,12,12,14,39,19.20
2015,12,12,14,40,19.20
2015,12,12,14,41,15.40
2015,12,12,14,42,20.00
2015,12,12,14,43,20.00
2015,12,12,14,44,19.60
2015,12,12,14,45,18.80
2015,12,12,14,46,24.00
2015,12,12,14,47,21.10
2015,12,12,14,48,19.10
2015,12,12,14,49,19.80
2015,12,12,14,50,13.10
2015,12,12,14,51,19.80
2015,12,12,14,52,11.80
2015,12,12,14,53,15.40
2015,12,12,14,54,20.40
2015,12,12,14,55,19.20
2015,12,12,14,56,16.60
2015,12,12,14,57,15.40
2015,12,12,14,58,20.40
2015,12,12,14,59,13.90
2015,12,12,15,00,21.60
2015,12,12,15,01,21.60
2015,12,12,15,02,16.80
2015,12,12,15,03,13.00
2015,12,12,15,04,13.40
2015,12,12,15,05,21.10
2015,12,12,15,06,13.60
2015,12,12,15,07,15.20
2015,12,12,15,08,11.30
2015,12,12,15,09,24.70
2015,12,12,15,10,20.00
2015,12,12,15,11,19.30
2015,12,12,15,12,20.40
2015,12,12,15,13,17.50
2015,12,12,15,14,20.90
2015,12,12,15,15,24.10
2015,12,12,15,16,15.00
2015,12,12,15,17,16.60
2015,12,12,15,18,23.70
2015,12,12,15,19,20.40
2015,12,12,15,20,25.10
2015,12,12,15,21,21.80
2015,12,12,15,22,22.00
2015,12,12,15,23,15.70
2015,12,12,15,24,14.60
2015,12,12,15,25,7.40
2015,12,12,15,26,11.90
2015,12,12,15,27,24.90
2015,12,12,15,28,12.50
2015,12,12,15,29,14.50
2015,12,12,15,30,13.40
2015,12,12,15,31,11.80
2015,12,12,15,32,13.70
2015,12,12,15,33,18.80
2015,12,12,15,34,15.70
2015,12,12,15,35,10.90
2015,12,12,15,36,9.80
2015,12,12,15,37,6.00
2015,12,12,15,38,9.40
2015,12,12,15,39,13.50
2015,12,12,15,40,20.70
2015,12,12,15,41,22.70
2015,12,12,15,42,22.30
2015,12,12,15,43,24.50
2015,12,12,15,44,16.20
2015,12,12,15,45,11.00
2015,12,12,15,46,16.90
2015,12,12,15,47,15.00
2015,12,12,15,48,21.60
2015,12,12,15,49,11.30
2015,12,12,15,50,24.30
2015,12,12,15,51,14.90
2015,12,12,15,52,12.20
2015,12,12,15,53,22.60
2015,12,12,15,54,17.20
2015,12,12,15,55,11.80
2015,12,12,15,56,10.30
2015,12,12,15,57,8.40
2015,12,12,15,58,9.50
2015,12,12,15,59,15.80
2015,12,12,16,00,11.70
2015,12,12,16,01,18.70
2015,12,12,16,02,17.70
2015,12,12,16,03,15.60
2015,12,12,16,04,18.30
2015,12,12,16,05,10.20
2015,12,12,16,06,9.70
2015,12,12,16,07,11.30
2015,12,12,16,08,16.90
2015,12,12,16,09,23.30
2015,12,12,16,10,11.50
2015,12,12,16,11,14.60
2015,12,12,16,12,14.30
2015,12,12,16,13,8.40
2015,12,12,16,14,15.70
2015,12,12,16,15,18.70
2015,12,12,16,16,23.10
2015,12,12,16,17,18.50
2015,12,12,16,18,7.40
2015,12,12,16,19,10.60
2015,12,12,16,20,15.40
2015,12,12,16,21,8.40
2015,12,12,16,22,13.40
2015,12,12,16,23,15.40
2015,12,12,16,24,13.00
2015,12,12,16,25,9.30
2015,12,12,16,26,10.10
2015,12,12,16,27,12.00
2015,12,12,16,28,13.00
2015,12,12,16,29,16.90
2015,12,12,16,30,11.20
2015,12,12,16,31,17.20
2015,12,12,16,32,11.80
2015,12,12,16,33,9.70
2015,12,12,16,34,15.90
2015,12,12,16,35,16.00
2015,12,12,16,36,13.60
2015,12,12,16,37,13.70
2015,12,12,16,38,15.40
2015,12,12,16,39,14.40
2015,12,12,16,40,9.70
2015,12,12,16,41,15.00
2015,12,12,16,42,20.40
2015,12,12,16,43,19.50
2015,12,12,16,44,9.70
2015,12,12,16,45,19.00
2015,12,12,16,46,14.60
2015,12,12,16,47,16.60
2015,12,12,16,48,17.70
2015,12,12,16,49,17.70
2015,12,12,16,50,18.30
2015,12,12,16,51,13.00
2015,12,12,16,52,11.80
2015,12,12,16,53,16.70
2015,12,12,16,54,15.00
2015,12,12,16,55,15.90
2015,12,12,16,56,12.20
2015,12,12,16,57,20.20
2015,12,12,16,58,15.80
2015,12,12,16,59,13.80
2015,12,12,17,00,12.20
2015,12,12,17,01,21.00
2015,12,12,17,02,17.10
2015,12,12,17,03,19.50
2015,12,12,17,04,16.50
2015,12,12,17,05,12.80
2015,12,12,17,06,17.70
2015,12,12,17,07,14.10
2015,12,12,17,08,13.60
2015,12,12,17,09,7.50
2015,12,12,17,10,13.70
2015,12,12,17,11,21.50
2015,12,12,17,12,21.30
2015,12,12,17,13,18.60
2015,12,12,17,14,14.60
2015,12,12,17,15,20.40
2015,12,12,17,16,16.90
2015,12,12,17,17,13.80
2015,12,12,17,18,14.00
2015,12,12,17,19,13.60
2015,12,12,17,20,16.50
2015,12,12,17,21,15.00
2015,12,12,17,22,15.40
2015,12,12,17,23,20.70
2015,12,12,17,24,21.40
2015,12,12,17,25,14.10
2015,12,12,17,26,14.30
2015,12,12,17,27,17.90
2015,12,12,17,28,18.90
2015,12,12,17,29,19.30
2015,12,12,17,30,22.40
2015,12,12,17,31,15.50
2015,12,12,17,32,18.80
2015,12,12,17,33,20.30
2015,12,12,17,34,19.00
2015,12,12,17,35,20.50
2015,12,12,17,36,21.10
2015,12,12,17,37,17.80
2015,12,12,17,38,17.40
2015,12,12,17,39,24.10
2015,12,12,17,40,16.50
2015,12,12,17,41,20.50